Location: State Camp
(41.2367°N, 77.7828°W)
Time: 09:32:02
(UTC-04:00)

ADEOS Rocket - Visible Passes

Search period start: 27 July 2016 00:00
Search period end: 06 August 2016 00:00
Orbit: 858 x 1307 km, 98.7° (Epoch: 26 July)

Date Brightness Start Highest point End Pass type
(mag) Time Alt. Az. Time Alt. Az. Time Alt. Az.
27 Jul 4.7 04:52:08 10° NNE 04:58:09 37° E 05:04:42 10° SSE visible
28 Jul 5.7 04:04:56 10° NE 04:08:51 16° E 04:12:56 10° SE visible
29 Jul 4.5 04:59:37 10° NNE 05:05:54 43° E 05:12:46 10° S visible
30 Jul 5.6 04:12:01 10° NE 04:16:40 19° E 04:21:34 10° SE visible
31 Jul 4.2 05:07:09 10° NNE 05:13:40 51° E 05:20:47 10° S visible
01 Aug 5.4 04:19:14 10° NE 04:24:29 23° E 04:30:01 10° SE visible
02 Aug 4.0 05:14:42 10° NNE 05:21:25 59° E 05:28:45 10° S visible
03 Aug 5.3 04:26:34 10° NE 04:32:17 27° E 04:38:22 10° SSE visible
04 Aug 6.0 03:41:27 10° ENE 03:42:48 11° E 03:44:08 10° E visible
04 Aug 3.9 05:22:17 10° NNE 05:29:10 68° ESE 05:36:40 10° S visible
05 Aug 5.1 04:33:58 10° NE 04:40:06 31° E 04:46:36 10° SSE visible
